DW1347 Weather Reports


Display with metric or nautical units.
time (UTC)temp
F
wind
direction
speed
MPH
gust
MPH
rain 1hr
in
rain 24hr
in
rain mn
in
humidity
%
barometer
mb
20210804005143 56 239 0.0 1.0 0.00 0.12 0.12 98 1033.3
20210804004642 56 234 0.0 0.0 0.00 0.12 0.12 97 1033.2
20210804004142 56 213 1.0 1.0 0.00 0.12 0.12 97 1033.4
20210804003640 56 229 0.0 0.0 0.07 0.12 0.12 96 1032.8
20210804003138 56 215 1.0 2.0 0.07 0.12 0.12 95 1032.9
20210804002638 56 240 1.0 1.0 0.00 0.11 0.11 96 1032.7
20210804002135 57 220 1.0 2.0 0.00 0.11 0.11 96 1032.9
20210804001634 57 232 1.0 1.0 0.00 0.11 0.11 96 1032.9
20210804001132 57 232 1.0 1.0 0.00 0.11 0.11 97 1033.1
20210804000631 58 240 0.0 0.0 0.00 0.11 0.11 98 1033.1
20210804000132 57 227 0.0 0.0 0.00 0.11 0.11 97 1033.1
20210803235630 58 193 1.0 1.0 0.00 0.11 0.11 97 1033.1
20210803235129 58 243 0.0 0.0 0.00 0.11 0.11 98 1033.2
20210803234627 59 237 0.0 0.0 0.00 0.11 0.11 98 1032.8
20210803234125 59 239 0.0 0.0 0.00 0.11 0.11 99 1032.7
20210803233625 59 230 0.0 0.0 0.00 0.11 0.11 98 1032.8
20210803233124 59 230 0.0 0.0 0.00 0.11 0.11 98 1032.8
20210803232622 59 230 0.0 0.0 0.00 0.11 0.11 98 1032.8
20210803232120 59 241 0.0 0.0 0.00 0.11 0.11 98 1032.9
20210803231619 59 206 1.0 1.0 0.00 0.11 0.11 98 1032.7
20210803231120 59 211 1.0 2.0 0.00 0.11 0.11 98 1032.7
20210803230618 59 226 0.0 0.0 0.00 0.11 0.11 98 1032.8
20210803230113 59 238 0.0 0.0 0.00 0.11 0.11 98 1032.7
20210803225610 59 238 0.0 0.0 0.00 0.11 0.11 98 1032.7
20210803225105 59 224 0.0 1.0 0.00 0.11 0.11 97 1032.7
20210803224604 59 241 0.0 0.0 0.00 0.11 0.11 96 1032.8
20210803224100 58 219 1.0 1.0 0.00 0.11 0.11 95 1032.6
20210803223558 59 196 1.0 1.0 0.00 0.11 0.11 96 1032.8
20210803223052 59 247 1.0 1.0 0.00 0.11 0.11 98 1032.6
20210803222550 59 242 0.0 0.0 0.00 0.11 0.11 97 1032.4
20210803222047 59 239 0.0 0.0 0.00 0.11 0.11 98 1032.4
20210803221544 59 249 0.0 0.0 0.00 0.11 0.11 97 1032.9
20210803221042 58 242 0.0 0.0 0.00 0.11 0.11 97 1032.8
20210803220542 58 237 0.0 0.0 0.00 0.11 0.11 97 1032.7
20210803220042 58 237 0.0 0.0 0.04 0.11 0.11 97 1033.1
20210803215541 57 239 0.0 0.0 0.11 0.11 0.11 97 1033.1
20210803215040 58 232 0.0 0.0 0.07 0.10 0.10 97 1032.9
20210803214539 58 225 0.0 0.0 0.00 0.09 0.09 98 1033.3
20210803214039 58 228 0.0 0.0 0.04 0.09 0.09 97 1033.2
20210803213538 57 241 0.0 0.0 0.04 0.09 0.09 97 1033.2
20210803213036 58 221 0.0 0.0 0.07 0.08 0.08 97 1033.3
20210803212534 57 221 1.0 1.0 0.14 0.08 0.08 97 1033.2
20210803212034 57 222 0.0 0.0 0.07 0.07 0.07 97 1033.6
20210803211532 57 220 0.0 1.0 0.04 0.05 0.05 97 1033.4
20210803211031 57 230 0.0 0.0 0.11 0.05 0.05 97 1033.2
20210803210528 57 256 0.0 0.0 0.07 0.05 0.05 97 1033.3
20210803210028 57 246 0.0 0.0 0.00 0.03 0.03 97 1032.9
20210803205523 57 231 0.0 0.0 0.00 0.03 0.03 96 1033.3
20210803205023 56 227 0.0 0.0 0.00 0.03 0.03 97 1033.3
20210803204524 57 242 0.0 0.0 0.04 0.03 0.03 97 1033.2
20210803204022 56 245 0.0 0.0 0.04 0.03 0.03 97 1033.2
20210803203518 56 257 2.0 2.0 0.07 0.03 0.03 96 1033.2
20210803203018 56 248 1.0 1.0 0.07 0.03 0.03 96 1033.3
20210803202513 57 247 2.0 3.0 0.11 0.02 0.02 95 1033.3
20210803202013 57 254 2.0 3.0 0.11 0.02 0.02 94 1033.2
20210803201511 58 248 3.0 3.0 0.00 0.00 0.00 91 1032.9
20210803201011 60 246 3.0 3.0 0.00 0.00 0.00 85 1033.1
20210803200510 63 319 4.0 6.0 0.00 0.00 0.00 75 1033.1
20210803200010 63 99 2.0 2.0 0.00 0.00 0.00 68 1033.1
20210803195508 64 242 1.0 2.0 0.00 0.00 0.00 65 1032.6
20210803195006 63 234 0.0 1.0 0.00 0.00 0.00 66 1032.6
20210803194505 64 313 3.0 3.0 0.00 0.00 0.00 66 1032.6
20210803194003 65 294 5.0 6.0 0.00 0.00 0.00 61 1032.6
20210803193500 66 342 5.0 6.0 0.00 0.00 0.00 59 1032.6
20210803192959 69 276 7.0 10.0 0.00 0.00 0.00 57 1032.6
20210803192458 69 307 1.0 2.0 0.00 0.00 0.00 56 1032.6
20210803191957 70 5 4.0 6.0 0.00 0.00 0.00 55 1032.3
20210803191456 71 246 1.0 1.0 0.00 0.00 0.00 54 1032.4
20210803190955 72 62 3.0 3.0 0.00 0.00 0.00 54 1032.2
20210803190454 71 156 1.0 2.0 0.00 0.00 0.00 54 1032.3
20210803185952 70 267 1.0 1.0 0.00 0.00 0.00 54 1032.7
20210803185453 71 140 3.0 3.0 0.00 0.00 0.00 55 1032.4
20210803184951 72 271 3.0 3.0 0.00 0.00 0.00 52 1032.6
20210803184450 70 19 3.0 3.0 0.00 0.00 0.00 54 1032.8
20210803183947 69 267 0.0 0.0 0.00 0.00 0.00 55 1032.6
20210803183447 71 308 3.0 3.0 0.00 0.00 0.00 55 1032.8
20210803182944 70 267 0.0 0.0 0.00 0.00 0.00 57 1032.6
20210803182443 68 325 1.0 2.0 0.00 0.00 0.00 56 1032.7
20210803181943 67 341 2.0 2.0 0.00 0.00 0.00 58 1032.9
20210803181439 68 182 0.0 1.0 0.00 0.00 0.00 57 1032.8
20210803180938 68 334 4.0 6.0 0.00 0.00 0.00 57 1032.7
20210803180436 67 238 5.0 7.0 0.00 0.00 0.00 57 1032.9
20210803175935 68 268 3.0 3.0 0.00 0.00 0.00 58 1032.9
20210803175433 68 353 5.0 6.0 0.00 0.00 0.00 58 1033.1
20210803174932 68 213 1.0 1.0 0.00 0.00 0.00 57 1033.2
20210803174431 67 359 3.0 3.0 0.00 0.00 0.00 57 1032.9
20210803173930 68 256 3.0 5.0 0.00 0.00 0.00 56 1033.1
20210803173428 68 248 2.0 2.0 0.00 0.00 0.00 56 1032.8
20210803172925 68 326 5.0 6.0 0.00 0.00 0.00 55 1033.1
20210803172425 68 240 2.0 2.0 0.00 0.00 0.00 58 1033.2
20210803171924 68 249 0.0 0.0 0.00 0.00 0.00 54 1033.4
20210803171424 70 124 4.0 5.0 0.00 0.00 0.00 56 1033.1
20210803170922 70 246 0.0 1.0 0.00 0.00 0.00 55 1033.2
20210803170421 68 247 3.0 3.0 0.00 0.00 0.00 58 1033.3
20210803165920 68 0 4.0 5.0 0.00 0.00 0.00 57 1033.2
20210803165419 68 56 3.0 5.0 0.00 0.00 0.00 63 1033.4
20210803164919 66 273 1.0 2.0 0.00 0.00 0.00 63 1033.2
20210803164416 66 238 0.0 1.0 0.00 0.00 0.00 62 1033.3
20210803163914 66 239 0.0 0.0 0.00 0.00 0.00 65 1033.4
20210803163410 64 15 2.0 2.0 0.00 0.00 0.00 66 1033.3
20210803162910 64 352 2.0 2.0 0.00 0.00 0.00 68 1033.3
20210803162408 63 330 2.0 2.0 0.00 0.00 0.00 69 1033.1
20210803161906 63 279 2.0 3.0 0.00 0.00 0.00 71 1033.4
20210803161405 62 277 3.0 3.0 0.00 0.00 0.00 73 1033.4
20210803160902 62 260 1.0 1.0 0.00 0.00 0.00 78 1033.2
20210803160401 62 273 1.0 1.0 0.00 0.00 0.00 77 1033.6
20210803155859 62 253 0.0 0.0 0.00 0.00 0.00 80 1033.4
20210803155357 61 249 0.0 0.0 0.00 0.00 0.00 81 1033.3
20210803154857 61 241 0.0 0.0 0.00 0.00 0.00 81 1033.2
20210803154356 60 243 0.0 0.0 0.00 0.00 0.00 83 1033.3
20210803153852 60 244 0.0 0.0 0.00 0.00 0.00 84 1033.2
20210803153350 60 249 0.0 0.0 0.00 0.00 0.00 82 1033.3
20210803152848 60 253 0.0 0.0 0.00 0.00 0.00 83 1033.3
20210803152347 60 244 0.0 0.0 0.00 0.00 0.00 84 1033.4
20210803151846 60 231 0.0 0.0 0.00 0.00 0.00 83 1033.2
20210803151346 60 235 0.0 0.0 0.00 0.00 0.00 83 1032.9
20210803150845 60 238 0.0 0.0 0.00 0.00 0.00 82 1033.3
20210803150343 59 240 0.0 0.0 0.00 0.00 0.00 83 1033.2
20210803145842 59 232 0.0 0.0 0.00 0.00 0.00 84 1033.2
20210803145340 59 243 0.0 0.0 0.00 0.00 0.00 84 1032.9
20210803144837 58 233 0.0 0.0 0.00 0.00 0.00 84 1033.3
20210803144334 58 243 0.0 0.0 0.00 0.00 0.00 86 1033.1
20210803143833 58 235 0.0 0.0 0.00 0.00 0.00 84 1033.1
20210803143333 59 243 0.0 0.0 0.00 0.00 0.00 84 1033.4
20210803142832 58 242 0.0 0.0 0.00 0.00 0.00 82 1033.1
20210803142330 58 246 0.0 0.0 0.00 0.00 0.00 84 1033.2
20210803141828 58 224 0.0 0.0 0.00 0.00 0.00 81 1033.3
20210803141327 57 217 1.0 1.0 0.00 0.00 0.00 82 1033.3
20210803140825 57 239 0.0 0.0 0.00 0.00 0.00 84 1032.8
20210803140324 57 238 0.0 0.0 0.00 0.00 0.00 83 1033.1
20210803135822 57 225 0.0 1.0 0.00 0.00 0.00 85 1033.1
20210803135320 57 236 0.0 0.0 0.00 0.00 0.00 85 1033.1
20210803134819 57 245 0.0 0.0 0.00 0.00 0.00 86 1033.1
20210803134316 57 214 0.0 1.0 0.00 0.00 0.00 86 1033.1
20210803133809 57 242 0.0 0.0 0.00 0.00 0.00 86 1033.1
20210803133307 57 152 2.0 2.0 0.00 0.00 0.00 86 1032.9
20210803132807 56 240 0.0 0.0 0.00 0.00 0.00 84 1033.2
20210803132307 57 247 0.0 0.0 0.00 0.00 0.00 85 1032.7
20210803131806 57 225 0.0 1.0 0.00 0.00 0.00 81 1032.8
20210803131305 57 210 1.0 1.0 0.00 0.00 0.00 85 1032.8
20210803130803 57 236 0.0 0.0 0.00 0.00 0.00 85 1032.4
20210803130301 57 231 0.0 1.0 0.00 0.00 0.00 84 1032.8
20210803125757 57 246 0.0 0.0 0.00 0.00 0.00 84 1032.7
20210803125256 57 231 0.0 0.0 0.00 0.00 0.00 82 1032.8
20210803124756 57 223 0.0 0.0 0.00 0.00 0.00 81 1032.6
20210803124255 57 235 0.0 0.0 0.00 0.00 0.00 81 1032.7
20210803123748 57 257 0.0 0.0 0.00 0.00 0.00 82 1032.6
20210803123248 57 236 0.0 0.0 0.00 0.00 0.00 81 1032.4
20210803122746 57 226 0.0 0.0 0.00 0.00 0.00 78 1032.6
20210803122246 57 197 1.0 1.0 0.00 0.00 0.00 79 1032.7
20210803121741 56 222 0.0 1.0 0.00 0.00 0.00 83 1032.4
20210803121240 57 240 0.0 0.0 0.00 0.00 0.00 81 1032.4
20210803120738 57 217 1.0 1.0 0.00 0.00 0.00 81 1032.7
20210803120235 57 240 0.0 0.0 0.00 0.00 0.00 83 1032.4
20210803115735 57 237 0.0 0.0 0.00 0.00 0.00 80 1032.7
20210803115234 57 218 0.0 1.0 0.00 0.00 0.00 79 1032.6
20210803114732 56 113 2.0 2.0 0.00 0.00 0.00 81 1032.8
20210803114230 56 211 1.0 1.0 0.00 0.00 0.00 83 1032.7
20210803113729 56 218 1.0 1.0 0.00 0.00 0.00 84 1032.6
20210803113228 56 239 0.0 0.0 0.00 0.00 0.00 83 1032.6
20210803112726 56 231 0.0 0.0 0.00 0.00 0.00 82 1032.6
20210803112225 56 213 0.0 0.0 0.00 0.00 0.00 83 1032.4
20210803111723 56 234 0.0 0.0 0.00 0.00 0.00 82 1032.6
20210803111223 56 229 0.0 0.0 0.00 0.00 0.00 81 1032.6
20210803110721 56 222 0.0 0.0 0.00 0.00 0.00 82 1032.6
20210803110220 56 229 0.0 0.0 0.00 0.00 0.00 82 1032.4
20210803105718 57 257 0.0 1.0 0.00 0.00 0.00 82 1032.4
20210803105215 56 212 1.0 1.0 0.00 0.00 0.00 80 1032.4
20210803104715 57 247 0.0 0.0 0.00 0.00 0.00 79 1032.6
20210803104211 57 239 0.0 0.0 0.00 0.00 0.00 78 1032.8
20210803103709 57 229 0.0 1.0 0.00 0.00 0.00 76 1032.6
20210803103208 56 224 0.0 0.0 0.00 0.00 0.00 77 1032.7
20210803102703 56 213 0.0 0.0 0.00 0.00 0.00 79 1032.6
20210803102201 56 228 0.0 0.0 0.00 0.00 0.00 80 1032.8
20210803101659 56 236 0.0 0.0 0.00 0.00 0.00 80 1032.7
20210803101200 56 224 0.0 0.0 0.00 0.00 0.00 79 1033.1
20210803100700 56 235 0.0 0.0 0.00 0.00 0.00 79 1032.8
20210803100159 56 226 0.0 0.0 0.00 0.00 0.00 82 1033.1
20210803095653 56 233 0.0 0.0 0.00 0.00 0.00 79 1032.9
20210803095152 56 240 0.0 0.0 0.00 0.00 0.00 80 1032.7
20210803094653 56 235 0.0 0.0 0.00 0.00 0.00 79 1032.9
20210803094151 56 227 0.0 0.0 0.00 0.00 0.00 79 1032.7
20210803093650 56 228 0.0 0.0 0.00 0.00 0.00 80 1032.7
20210803093148 56 240 0.0 0.0 0.00 0.00 0.00 80 1032.8
20210803092644 56 225 0.0 0.0 0.00 0.00 0.00 79 1032.8
20210803092143 56 224 0.0 1.0 0.00 0.00 0.00 79 1032.8
20210803091642 56 230 0.0 0.0 0.00 0.00 0.00 79 1032.7
20210803091139 56 243 0.0 0.0 0.00 0.00 0.00 79 1032.8
20210803090639 56 241 0.0 0.0 0.00 0.00 0.00 79 1032.7
20210803090135 55 213 1.0 1.0 0.00 0.00 0.00 78 1032.4
20210803085634 55 238 0.0 0.0 0.00 0.00 0.00 78 1032.9
20210803085133 56 244 0.0 0.0 0.00 0.00 0.00 79 1032.8
20210803084633 56 261 0.0 0.0 0.00 0.00 0.00 79 1032.7
20210803084132 56 233 0.0 0.0 0.00 0.00 0.00 78 1032.9
20210803083631 55 232 0.0 1.0 0.00 0.00 0.00 80 1032.9
20210803083131 55 228 0.0 0.0 0.00 0.00 0.00 78 1033.1
20210803082628 55 232 0.0 0.0 0.00 0.00 0.00 78 1033.2
20210803082127 55 217 0.0 1.0 0.00 0.00 0.00 79 1033.1
20210803081627 55 225 0.0 0.0 0.00 0.00 0.00 79 1033.1
20210803081125 55 218 0.0 1.0 0.00 0.00 0.00 79 1032.7
20210803080623 56 221 0.0 0.0 0.00 0.00 0.00 78 1033.1
20210803080120 55 209 1.0 1.0 0.00 0.00 0.00 79 1033.2
20210803075619 56 219 1.0 1.0 0.00 0.00 0.00 79 1033.1
20210803075118 56 223 0.0 0.0 0.00 0.00 0.00 78 1032.9
20210803074616 56 148 3.0 3.0 0.00 0.00 0.00 78 1033.2
20210803074115 55 166 1.0 1.0 0.00 0.00 0.00 79 1033.1
20210803073612 55 228 0.0 0.0 0.00 0.00 0.00 81 1032.9
20210803073112 55 228 0.0 0.0 0.00 0.00 0.00 81 1033.1
20210803072610 55 228 0.0 0.0 0.00 0.00 0.00 81 1033.2
20210803072110 55 225 0.0 0.0 0.00 0.00 0.00 81 1033.3
20210803071607 55 232 0.0 0.0 0.00 0.00 0.00 81 1033.1
20210803071107 56 241 0.0 0.0 0.00 0.00 0.00 80 1033.1
20210803070606 56 214 1.0 1.0 0.00 0.00 0.00 80 1033.2
20210803070104 56 210 1.0 1.0 0.00 0.00 0.00 80 1033.3
20210803065604 56 239 0.0 0.0 0.00 0.00 0.00 79 1033.4
20210803065102 56 238 0.0 0.0 0.00 0.00 0.00 79 1033.3
20210803064600 57 201 1.0 1.0 0.00 0.00 0.00 78 1033.6
20210803064058 57 234 0.0 0.0 0.00 0.00 0.00 79 1033.4
20210803063557 57 234 0.0 0.0 0.00 0.00 0.00 77 1033.2
20210803063056 57 227 0.0 0.0 0.00 0.00 0.00 78 1033.3
20210803062557 57 232 0.0 0.0 0.00 0.00 0.00 79 1033.3
20210803062055 58 239 0.0 1.0 0.00 0.00 0.00 78 1033.3
20210803061554 58 239 0.0 0.0 0.00 0.00 0.00 77 1033.3
20210803061052 58 217 1.0 1.0 0.00 0.00 0.00 76 1033.4
20210803060551 58 239 0.0 0.0 0.00 0.00 0.00 77 1033.1
20210803060049 58 208 1.0 1.0 0.00 0.00 0.00 77 1033.1
20210803055546 59 240 0.0 0.0 0.00 0.00 0.00 76 1033.1
20210803055044 59 237 0.0 0.0 0.00 0.00 0.00 76 1032.8
20210803054543 59 203 1.0 1.0 0.00 0.00 0.00 74 1032.9
20210803054042 59 207 1.0 1.0 0.00 0.00 0.00 75 1032.9
20210803053541 60 244 0.0 0.0 0.00 0.00 0.00 74 1032.9
20210803053037 60 228 0.0 0.0 0.00 0.00 0.00 73 1033.1
20210803052537 60 240 0.0 0.0 0.00 0.00 0.00 74 1033.3
20210803052036 60 239 0.0 0.0 0.00 0.00 0.00 73 1033.1
20210803051535 61 240 0.0 0.0 0.00 0.00 0.00 72 1033.1
20210803051034 61 239 0.0 0.0 0.00 0.00 0.00 70 1033.3
20210803050533 61 234 0.0 0.0 0.00 0.00 0.00 69 1033.3
20210803050031 60 213 1.0 1.0 0.00 0.00 0.00 70 1033.3
20210803045530 60 243 0.0 0.0 0.00 0.00 0.00 74 1033.3
20210803045029 61 254 0.0 0.0 0.00 0.00 0.00 74 1033.3
20210803044529 62 242 0.0 1.0 0.00 0.00 0.00 68 1033.3
20210803044029 62 230 0.0 0.0 0.00 0.00 0.00 68 1033.6
20210803043527 62 239 0.0 0.0 0.00 0.00 0.00 71 1033.6
20210803043025 62 237 0.0 0.0 0.00 0.00 0.00 70 1033.8
20210803042524 62 236 0.0 1.0 0.00 0.00 0.00 67 1033.9
20210803042024 63 236 0.0 0.0 0.00 0.00 0.00 67 1033.8
20210803041522 63 235 0.0 0.0 0.00 0.00 0.00 68 1033.7
20210803041020 62 224 1.0 1.0 0.00 0.00 0.00 67 1033.8
20210803040517 61 178 3.0 3.0 0.00 0.00 0.00 72 1034.1
20210803040017 62 242 0.0 0.0 0.00 0.00 0.00 72 1033.9
20210803035516 62 237 0.0 0.0 0.00 0.00 0.00 73 1033.9
20210803035015 62 237 0.0 0.0 0.00 0.00 0.00 72 1033.9
20210803034510 62 234 0.0 0.0 0.00 0.00 0.00 71 1033.9
20210803034009 63 230 0.0 0.0 0.00 0.00 0.00 71 1033.9
20210803033507 63 226 0.0 1.0 0.00 0.00 0.00 68 1034.1
20210803033007 63 235 0.0 0.0 0.00 0.00 0.00 69 1033.9
20210803032505 64 231 0.0 0.0 0.00 0.00 0.00 67 1033.8
20210803032004 64 237 0.0 0.0 0.00 0.00 0.00 66 1033.8
20210803031503 65 201 1.0 1.0 0.00 0.00 0.00 65 1033.9
20210803031001 65 231 0.0 0.0 0.00 0.00 0.00 65 1033.8
20210803030458 65 196 1.0 2.0 0.00 0.00 0.00 65 1033.9
20210803025957 65 186 2.0 2.0 0.00 0.00 0.00 64 1034.1
20210803025456 65 172 1.0 2.0 0.00 0.00 0.00 63 1033.8
20210803024954 66 199 1.0 1.0 0.00 0.00 0.00 62 1033.9
20210803024450 67 248 2.0 2.0 0.00 0.00 0.00 61 1034.1
20210803023950 67 221 2.0 2.0 0.00 0.00 0.00 60 1034.2
20210803023446 66 259 4.0 5.0 0.00 0.00 0.00 60 1034.1
20210803022945 67 263 3.0 3.0 0.00 0.00 0.00 59 1034.1
20210803022443 66 260 1.0 2.0 0.00 0.00 0.00 61 1034.1
20210803021943 66 248 2.0 2.0 0.00 0.00 0.00 61 1033.9
20210803021441 66 255 1.0 1.0 0.00 0.00 0.00 64 1033.9
20210803020940 66 232 1.0 1.0 0.00 0.00 0.00 66 1033.8
20210803020438 66 250 2.0 3.0 0.00 0.00 0.00 66 1034.2
20210803015936 66 247 1.0 1.0 0.00 0.00 0.00 67 1033.8
20210803015435 66 247 1.0 1.0 0.00 0.00 0.00 68 1033.9
20210803014934 66 225 0.0 0.0 0.00 0.00 0.00 67 1033.8
20210803014433 66 217 0.0 0.0 0.00 0.00 0.00 66 1033.8
20210803013932 67 227 0.0 0.0 0.00 0.00 0.00 65 1033.8
20210803013430 67 221 0.0 0.0 0.00 0.00 0.00 64 1033.8
20210803012928 67 226 0.0 0.0 0.00 0.00 0.00 63 1033.7
20210803012427 68 229 0.0 0.0 0.00 0.00 0.00 62 1033.7
20210803011926 68 237 0.0 0.0 0.00 0.00 0.00 62 1033.7
20210803011424 68 233 0.0 0.0 0.00 0.00 0.00 62 1033.4
20210803010923 69 226 0.0 0.0 0.00 0.00 0.00 60 1033.7
20210803010422 69 228 0.0 0.0 0.00 0.00 0.00 58 1033.6
20210803005921 69 242 0.0 0.0 0.00 0.00 0.00 56 1033.8
20210803005414 69 242 1.0 1.0 0.00 0.00 0.00 57 1033.6